When you browse on this site, cookies collect data to enhance your experience and personalize the content and advertising you see.
Visit our Privacy Policy to learn more. By continuing to use the site, you agree to this use of cookies and data.
  • In Hungary
  • List of Countries
  • For 7 days
  • Water Temperature
  • Weather Map
  • News
  • Weather Widgets
  • user-avatar
    Login

    Hourly Weather Biryulino

    Today, 20 January, Monday

    Time Temperature Precipitation Wind Pressure Humidity
    00:00 -1°C° 0 mm 5 mps 753 mmHg 88%
    01:00 -1°C° 0 mm 5 mps 753 mmHg 88%
    02:00 0°C° 0 mm 5 mps 753 mmHg 88%
    03:00 0°C° 0 mm 5 mps 753 mmHg 89%
    04:00 0°C° 0 mm 5 mps 753 mmHg 89%
    05:00 -1°C° 0 mm 5 mps 752 mmHg 89%
    06:00 -1°C° 0 mm 5 mps 752 mmHg 90%
    07:00 -1°C° 0 mm 5 mps 752 mmHg 91%
    08:00 -1°C° 0 mm 5 mps 752 mmHg 92%
    09:00 -1°C° 0 mm 5 mps 752 mmHg 90%
    10:00 0°C° 0 mm 5 mps 752 mmHg 88%
    11:00 0°C° 0 mm 5 mps 752 mmHg 86%
    12:00 0°C° 0 mm 5 mps 752 mmHg 88%
    13:00 -1°C° 0 mm 5 mps 752 mmHg 90%
    14:00 -1°C° 0 mm 4 mps 752 mmHg 94%
    15:00 -1°C° 0 mm 4 mps 752 mmHg 92%
    16:00 -1°C° 0 mm 4 mps 751 mmHg 91%
    17:00 -1°C° 0 mm 4 mps 751 mmHg 90%
    18:00 -1°C° 0 mm 4 mps 751 mmHg 88%
    19:00 -1°C° 0 mm 4 mps 750 mmHg 86%
    20:00 -1°C° 0 mm 5 mps 750 mmHg 84%
    21:00 -1°C° 0 mm 5 mps 749 mmHg 85%
    22:00 -1°C° 0 mm 5 mps 749 mmHg 85%
    23:00 -2°C° 0 mm 5 mps 748 mmHg 85%

    Tomorrow, 21 January, Tuesday

    Time Temperature Precipitation Wind Pressure Humidity
    00:00 -2°C° 0.3 mm 5 mps 748 mmHg 89%
    01:00 -2°C° 0.3 mm 5 mps 747 mmHg 92%
    02:00 -2°C° 0.3 mm 5 mps 746 mmHg 95%
    03:00 -2°C° 0.1 mm 5 mps 745 mmHg 94%
    04:00 -1°C° 0.1 mm 5 mps 744 mmHg 92%
    05:00 -1°C° 0.1 mm 5 mps 743 mmHg 91%
    06:00 0°C° 0.2 mm 5 mps 742 mmHg 90%
    07:00 -1°C° 0.2 mm 6 mps 741 mmHg 90%
    08:00 +1°C° 0.2 mm 6 mps 741 mmHg 89%
    09:00 +1°C° 0 mm 6 mps 740 mmHg 89%
    10:00 +1°C° 0 mm 6 mps 740 mmHg 89%
    11:00 +2°C° 0 mm 6 mps 739 mmHg 90%
    12:00 +2°C° 0 mm 6 mps 739 mmHg 89%
    13:00 +2°C° 0 mm 5 mps 738 mmHg 89%
    14:00 +3°C° 0 mm 5 mps 738 mmHg 89%
    15:00 +2°C° 0.5 mm 5 mps 736 mmHg 90%
    16:00 +2°C° 0.5 mm 5 mps 735 mmHg 92%
    17:00 +2°C° 0.5 mm 5 mps 734 mmHg 94%
    18:00 +2°C° 0.5 mm 5 mps 734 mmHg 93%
    19:00 +2°C° 0.5 mm 6 mps 734 mmHg 91%
    20:00 +2°C° 0.5 mm 6 mps 733 mmHg 90%
    21:00 +1°C° 0 mm 6 mps 734 mmHg 85%
    22:00 -1°C° 0 mm 6 mps 734 mmHg 81%
    23:00 -2°C° 0 mm 6 mps 735 mmHg 76%

    Day after tomorrow, 22 January, Wednesday

    Time Temperature Precipitation Wind Pressure Humidity
    00:00 -3°C° 0 mm 6 mps 735 mmHg 77%
    01:00 -2°C° 0 mm 5 mps 735 mmHg 77%
    02:00 -4°C° 0 mm 5 mps 735 mmHg 77%
    03:00 -4°C° 0 mm 5 mps 735 mmHg 79%
    04:00 -4°C° 0 mm 5 mps 734 mmHg 81%
    05:00 -4°C° 0 mm 5 mps 733 mmHg 82%
    06:00 -4°C° 0 mm 5 mps 733 mmHg 83%
    07:00 -4°C° 0 mm 5 mps 732 mmHg 84%
    08:00 -4°C° 0 mm 5 mps 732 mmHg 85%
    09:00 -4°C° 0.1 mm 5 mps 732 mmHg 83%
    10:00 -2°C° 0.1 mm 5 mps 731 mmHg 81%
    11:00 -2°C° 0.1 mm 5 mps 731 mmHg 79%
    12:00 -2°C° 0.3 mm 5 mps 731 mmHg 76%
    13:00 -2°C° 0.3 mm 5 mps 730 mmHg 74%
    14:00 -2°C° 0.3 mm 5 mps 730 mmHg 71%
    15:00 -4°C° 0 mm 5 mps 731 mmHg 72%
    16:00 -4°C° 0 mm 5 mps 731 mmHg 74%
    17:00 -4°C° 0 mm 4 mps 731 mmHg 76%
    18:00 -4°C° 0 mm 4 mps 732 mmHg 77%
    19:00 -4°C° 0 mm 4 mps 732 mmHg 78%
    20:00 -5°C° 0 mm 4 mps 733 mmHg 79%
    21:00 -6°C° 0 mm 5 mps 733 mmHg 79%
    22:00 -6°C° 0 mm 5 mps 733 mmHg 80%
    23:00 -6°C° 0 mm 6 mps 734 mmHg 80%

    23 January, Thursday

    Time Temperature Precipitation Wind Pressure Humidity
    00:00 -6°C° 0 mm 6 mps 734 mmHg 76%
    01:00 -8°C° 0 mm 6 mps 735 mmHg 73%
    02:00 -8°C° 0 mm 7 mps 736 mmHg 69%
    03:00 -9°C° 0 mm 7 mps 736 mmHg 68%
    04:00 -9°C° 0 mm 7 mps 737 mmHg 67%
    05:00 -11°C° 0 mm 7 mps 737 mmHg 66%
    06:00 -11°C° 0 mm 7 mps 738 mmHg 68%
    07:00 -10°C° 0 mm 6 mps 738 mmHg 70%
    08:00 -10°C° 0 mm 5 mps 739 mmHg 72%
    09:00 -9°C° 0.2 mm 6 mps 739 mmHg 73%
    10:00 -9°C° 0.2 mm 6 mps 739 mmHg 74%
    11:00 -8°C° 0.2 mm 7 mps 740 mmHg 75%
    12:00 -8°C° 0 mm 7 mps 740 mmHg 69%
    13:00 -8°C° 0 mm 6 mps 741 mmHg 62%
    14:00 -8°C° 0 mm 6 mps 741 mmHg 56%
    15:00 -9°C° 0 mm 6 mps 742 mmHg 58%
    16:00 -8°C° 0 mm 5 mps 742 mmHg 61%
    17:00 -8°C° 0 mm 5 mps 743 mmHg 63%
    18:00 -10°C° 0 mm 5 mps 744 mmHg 65%
    19:00 -9°C° 0 mm 4 mps 744 mmHg 67%
    20:00 -9°C° 0 mm 4 mps 745 mmHg 69%
    21:00 -9°C° 0 mm 4 mps 745 mmHg 69%
    22:00 -8°C° 0 mm 3 mps 745 mmHg 69%
    23:00 -8°C° 0 mm 3 mps 745 mmHg 69%

    24 January, Friday

    Time Temperature Precipitation Wind Pressure Humidity
    00:00 -8°C° 0 mm 3 mps 744 mmHg 67%
    01:00 -8°C° 0 mm 3 mps 744 mmHg 65%
    02:00 -8°C° 0 mm 3 mps 744 mmHg 64%
    03:00 -7°C° 0 mm 3 mps 743 mmHg 71%
    04:00 -8°C° 0 mm 4 mps 743 mmHg 77%
    05:00 -7°C° 0 mm 4 mps 742 mmHg 84%
    06:00 -7°C° 0.3 mm 4 mps 741 mmHg 87%
    07:00 -5°C° 0.3 mm 4 mps 741 mmHg 89%
    08:00 -6°C° 0.3 mm 5 mps 740 mmHg 91%
    09:00 -5°C° 0.2 mm 5 mps 740 mmHg 92%
    10:00 -5°C° 0.2 mm 5 mps 739 mmHg 92%
    11:00 -4°C° 0.2 mm 5 mps 739 mmHg 92%
    12:00 -2°C° 0.1 mm 4 mps 739 mmHg 92%
    13:00 -1°C° 0.1 mm 4 mps 738 mmHg 92%
    14:00 -1°C° 0.1 mm 4 mps 738 mmHg 93%
    15:00 0°C° 0 mm 4 mps 738 mmHg 92%
    16:00 0°C° 0 mm 4 mps 738 mmHg 91%
    17:00 +1°C° 0 mm 5 mps 738 mmHg 90%
    18:00 0°C° 0 mm 4 mps 739 mmHg 90%
    19:00 0°C° 0 mm 4 mps 739 mmHg 89%
    20:00 0°C° 0 mm 4 mps 739 mmHg 88%
    21:00 0°C° 0 mm 3 mps 739 mmHg 90%
    22:00 0°C° 0 mm 3 mps 739 mmHg 92%
    23:00 -1°C° 0 mm 2 mps 739 mmHg 94%

    25 January, Saturday

    Time Temperature Precipitation Wind Pressure Humidity
    00:00 -1°C° 0.1 mm 2 mps 739 mmHg 95%
    01:00 +1°C° 0.1 mm 2 mps 739 mmHg 96%
    02:00 +1°C° 0.1 mm 2 mps 739 mmHg 97%
    03:00 +1°C° 0.3 mm 2 mps 739 mmHg 98%
    04:00 +1°C° 0.3 mm 2 mps 739 mmHg 98%
    05:00 +1°C° 0.3 mm 2 mps 739 mmHg 98%
    06:00 +1°C° 0.3 mm 3 mps 738 mmHg 97%
    07:00 +1°C° 0.3 mm 3 mps 738 mmHg 97%
    08:00 0°C° 0.3 mm 4 mps 738 mmHg 96%
    09:00 0°C° 0 mm 4 mps 739 mmHg 96%
    10:00 0°C° 0 mm 4 mps 739 mmHg 95%
    11:00 +1°C° 0 mm 4 mps 739 mmHg 95%
    12:00 +1°C° 0.1 mm 4 mps 739 mmHg 95%
    13:00 +2°C° 0.1 mm 3 mps 739 mmHg 95%
    14:00 +2°C° 0.1 mm 3 mps 739 mmHg 96%
    15:00 +1°C° 0 mm 3 mps 740 mmHg 95%
    16:00 +1°C° 0 mm 3 mps 740 mmHg 94%
    17:00 +1°C° 0 mm 3 mps 740 mmHg 94%
    18:00 0°C° 0 mm 3 mps 741 mmHg 94%
    19:00 0°C° 0 mm 3 mps 741 mmHg 94%
    20:00 -1°C° 0 mm 3 mps 741 mmHg 94%
    21:00 -1°C° 0 mm 2 mps 742 mmHg 95%
    22:00 -2°C° 0 mm 2 mps 742 mmHg 95%
    23:00 -2°C° 0 mm 2 mps 742 mmHg 95%
    Show more